• en Suisse
  • Liste des pays
  • À 7 jours
  • Température de l'eau
  • Carte satellitaire
  • Carte météo
  • Widgets météo
  • user-avatar
    Se connecter

    Météo par heure à Shevali-Maydany

    Ce jour, 26 Mai, Samedi

    Heure Température Précipitation Vent Pression Humidité
    00:00 +7°C° 0 mm 3 m/s 760 mmHg 69%
    01:00 +7°C° 0 mm 3 m/s 761 mmHg 70%
    02:00 +6°C° 0 mm 2 m/s 761 mmHg 71%
    03:00 +5°C° 0 mm 2 m/s 762 mmHg 72%
    04:00 +6°C° 0 mm 2 m/s 762 mmHg 69%
    05:00 +5°C° 0 mm 3 m/s 763 mmHg 66%
    06:00 +7°C° 0 mm 3 m/s 763 mmHg 63%
    07:00 +9°C° 0 mm 3 m/s 764 mmHg 57%
    08:00 +10°C° 0 mm 4 m/s 764 mmHg 50%
    09:00 +12°C° 0 mm 4 m/s 764 mmHg 44%
    10:00 +12°C° 0 mm 4 m/s 764 mmHg 42%
    11:00 +13°C° 0 mm 4 m/s 765 mmHg 41%
    12:00 +14°C° 0 mm 4 m/s 765 mmHg 39%
    13:00 +16°C° 0 mm 3 m/s 765 mmHg 39%
    14:00 +16°C° 0 mm 3 m/s 764 mmHg 38%
    15:00 +17°C° 0 mm 3 m/s 764 mmHg 38%
    16:00 +17°C° 0 mm 2 m/s 764 mmHg 40%
    17:00 +17°C° 0 mm 2 m/s 764 mmHg 43%
    18:00 +16°C° 0 mm 1 m/s 764 mmHg 46%
    19:00 +14°C° 0 mm 1 m/s 764 mmHg 50%
    20:00 +12°C° 0 mm 1 m/s 764 mmHg 54%
    21:00 +10°C° 0 mm 1 m/s 764 mmHg 59%
    22:00 +10°C° 0 mm 1 m/s 764 mmHg 61%
    23:00 +9°C° 0 mm 1 m/s 764 mmHg 63%

    Demain, 27 Mai, Dimanche

    Heure Température Précipitation Vent Pression Humidité
    00:00 +8°C° 0 mm 2 m/s 764 mmHg 65%
    01:00 +7°C° 0 mm 2 m/s 764 mmHg 67%
    02:00 +7°C° 0 mm 2 m/s 764 mmHg 69%
    03:00 +7°C° 0 mm 2 m/s 764 mmHg 71%
    04:00 +7°C° 0 mm 3 m/s 764 mmHg 70%
    05:00 +8°C° 0 mm 3 m/s 764 mmHg 69%
    06:00 +9°C° 0 mm 3 m/s 764 mmHg 68%
    07:00 +11°C° 0 mm 4 m/s 763 mmHg 64%
    08:00 +13°C° 0 mm 4 m/s 763 mmHg 60%
    09:00 +15°C° 0 mm 4 m/s 763 mmHg 56%
    10:00 +16°C° 0 mm 5 m/s 762 mmHg 53%
    11:00 +17°C° 0 mm 5 m/s 761 mmHg 50%
    12:00 +19°C° 0 mm 5 m/s 761 mmHg 48%
    13:00 +20°C° 0 mm 6 m/s 760 mmHg 48%
    14:00 +20°C° 0 mm 6 m/s 759 mmHg 49%
    15:00 +20°C° 0 mm 6 m/s 759 mmHg 49%
    16:00 +20°C° 0 mm 6 m/s 758 mmHg 53%
    17:00 +19°C° 0 mm 5 m/s 757 mmHg 58%
    18:00 +19°C° 0 mm 5 m/s 757 mmHg 62%
    19:00 +17°C° 0 mm 5 m/s 757 mmHg 66%
    20:00 +16°C° 0 mm 5 m/s 756 mmHg 69%
    21:00 +15°C° 0 mm 5 m/s 756 mmHg 73%
    22:00 +15°C° 0,1 mm 4 m/s 756 mmHg 77%
    23:00 +14°C° 0,1 mm 4 m/s 756 mmHg 81%

    Après-demain, 28 Mai, Lundi

    Heure Température Précipitation Vent Pression Humidité
    00:00 +14°C° 0,1 mm 3 m/s 756 mmHg 84%
    01:00 +12°C° 0 mm 3 m/s 756 mmHg 88%
    02:00 +11°C° 0 mm 3 m/s 757 mmHg 91%
    03:00 +10°C° 0 mm 2 m/s 757 mmHg 95%
    04:00 +10°C° 0 mm 3 m/s 757 mmHg 91%
    05:00 +10°C° 0 mm 3 m/s 758 mmHg 88%
    06:00 +10°C° 0 mm 4 m/s 758 mmHg 84%
    07:00 +11°C° 0 mm 4 m/s 758 mmHg 74%
    08:00 +12°C° 0 mm 4 m/s 759 mmHg 63%
    09:00 +14°C° 0 mm 4 m/s 759 mmHg 53%
    10:00 +14°C° 0 mm 5 m/s 759 mmHg 49%
    11:00 +15°C° 0 mm 5 m/s 759 mmHg 44%
    12:00 +15°C° 0 mm 5 m/s 759 mmHg 40%
    13:00 +16°C° 0 mm 5 m/s 759 mmHg 39%
    14:00 +16°C° 0 mm 5 m/s 759 mmHg 39%
    15:00 +16°C° 0 mm 5 m/s 759 mmHg 39%
    16:00 +15°C° 0 mm 4 m/s 759 mmHg 42%
    17:00 +15°C° 0 mm 4 m/s 759 mmHg 45%
    18:00 +16°C° 0 mm 3 m/s 759 mmHg 49%
    19:00 +13°C° 0 mm 3 m/s 759 mmHg 54%
    20:00 +12°C° 0 mm 2 m/s 759 mmHg 58%
    21:00 +9°C° 0 mm 2 m/s 760 mmHg 63%
    22:00 +8°C° 0 mm 2 m/s 760 mmHg 65%
    23:00 +8°C° 0 mm 2 m/s 760 mmHg 67%

    29 Mai, Mardi

    Heure Température Précipitation Vent Pression Humidité
    00:00 +7°C° 0 mm 2 m/s 760 mmHg 68%
    01:00 +7°C° 0 mm 2 m/s 760 mmHg 70%
    02:00 +7°C° 0 mm 2 m/s 760 mmHg 71%
    03:00 +6°C° 0 mm 2 m/s 760 mmHg 73%
    04:00 +7°C° 0 mm 3 m/s 760 mmHg 71%
    05:00 +8°C° 0 mm 3 m/s 760 mmHg 68%
    06:00 +9°C° 0 mm 3 m/s 760 mmHg 66%
    07:00 +11°C° 0 mm 4 m/s 759 mmHg 61%
    08:00 +14°C° 0 mm 5 m/s 759 mmHg 57%
    09:00 +16°C° 0 mm 5 m/s 759 mmHg 52%
    10:00 +17°C° 0 mm 6 m/s 758 mmHg 49%
    11:00 +19°C° 0 mm 6 m/s 758 mmHg 45%
    12:00 +21°C° 0 mm 6 m/s 757 mmHg 42%
    13:00 +21°C° 0 mm 6 m/s 757 mmHg 42%
    14:00 +22°C° 0 mm 6 m/s 757 mmHg 43%
    15:00 +22°C° 0 mm 6 m/s 756 mmHg 43%
    16:00 +22°C° 0 mm 5 m/s 756 mmHg 47%
    17:00 +22°C° 0 mm 4 m/s 756 mmHg 52%
    18:00 +21°C° 0 mm 3 m/s 755 mmHg 57%
    19:00 +19°C° 0 mm 3 m/s 755 mmHg 62%
    20:00 +18°C° 0 mm 3 m/s 756 mmHg 67%
    21:00 +16°C° 0 mm 2 m/s 756 mmHg 73%
    22:00 +15°C° 0 mm 2 m/s 756 mmHg 75%
    23:00 +14°C° 0 mm 2 m/s 755 mmHg 77%

    30 Mai, Mercredi

    Heure Température Précipitation Vent Pression Humidité
    00:00 +13°C° 0 mm 2 m/s 755 mmHg 80%
    01:00 +13°C° 0 mm 2 m/s 755 mmHg 80%
    02:00 +13°C° 0 mm 2 m/s 755 mmHg 80%
    03:00 +13°C° 0 mm 2 m/s 755 mmHg 80%
    04:00 +13°C° 0 mm 2 m/s 755 mmHg 80%
    05:00 +14°C° 0 mm 2 m/s 754 mmHg 79%
    06:00 +13°C° 0 mm 3 m/s 754 mmHg 79%
    07:00 +16°C° 0 mm 3 m/s 753 mmHg 73%
    08:00 +18°C° 0 mm 4 m/s 753 mmHg 67%
    09:00 +20°C° 0 mm 5 m/s 752 mmHg 61%
    10:00 +21°C° 0 mm 5 m/s 752 mmHg 56%
    11:00 +23°C° 0 mm 6 m/s 752 mmHg 50%
    12:00 +24°C° 0 mm 6 m/s 751 mmHg 44%
    13:00 +25°C° 0 mm 5 m/s 751 mmHg 47%
    14:00 +25°C° 0 mm 5 m/s 751 mmHg 49%
    15:00 +25°C° 0 mm 4 m/s 751 mmHg 51%
    16:00 +23°C° 0 mm 4 m/s 751 mmHg 54%
    17:00 +24°C° 0 mm 3 m/s 751 mmHg 57%
    18:00 +22°C° 0 mm 3 m/s 751 mmHg 60%
    19:00 +21°C° 0 mm 2 m/s 751 mmHg 66%
    20:00 +19°C° 0 mm 2 m/s 751 mmHg 71%
    21:00 +18°C° 0 mm 1 m/s 751 mmHg 76%
    22:00 +18°C° 0 mm 1 m/s 751 mmHg 78%
    23:00 +16°C° 0 mm 1 m/s 751 mmHg 80%

    31 Mai, Jeudi

    Heure Température Précipitation Vent Pression Humidité
    00:00 +15°C° 0 mm 1 m/s 751 mmHg 83%
    01:00 +15°C° 0 mm 2 m/s 750 mmHg 82%
    02:00 +15°C° 0 mm 2 m/s 750 mmHg 82%
    03:00 +15°C° 0 mm 2 m/s 750 mmHg 82%
    04:00 +16°C° 0 mm 3 m/s 750 mmHg 80%
    05:00 +16°C° 0 mm 3 m/s 749 mmHg 78%
    06:00 +17°C° 0 mm 3 m/s 749 mmHg 76%
    07:00 +19°C° 0 mm 4 m/s 749 mmHg 72%
    08:00 +20°C° 0 mm 4 m/s 748 mmHg 67%
    09:00 +22°C° 0 mm 4 m/s 748 mmHg 62%
    10:00 +23°C° 0 mm 5 m/s 747 mmHg 57%
    11:00 +24°C° 0 mm 6 m/s 747 mmHg 53%
    12:00 +26°C° 0 mm 6 m/s 747 mmHg 48%
    13:00 +24°C° 0 mm 6 m/s 747 mmHg 53%
    14:00 +22°C° 0 mm 5 m/s 747 mmHg 58%
    15:00 +21°C° 0 mm 5 m/s 747 mmHg 63%
    16:00 +19°C° 0,3 mm 4 m/s 747 mmHg 69%
    17:00 +17°C° 0,3 mm 4 m/s 747 mmHg 75%
    18:00 +16°C° 0,3 mm 3 m/s 747 mmHg 82%
    19:00 +13°C° 0,1 mm 3 m/s 747 mmHg 84%
    20:00 +13°C° 0,1 mm 2 m/s 748 mmHg 86%
    21:00 +12°C° 0,1 mm 1 m/s 748 mmHg 87%
    22:00 +12°C° 0 mm 1 m/s 749 mmHg 87%
    23:00 +12°C° 0 mm 1 m/s 749 mmHg 86%
    Voir plus